sat.trackr.live / text

‹ back to catalog

STARLINK-34720

NORAD 66449 · 2025-259AD

PAYLOAD ACTIVE UNKNOWN

§ Identity

Operator
Country
US
Launch date
2025-11-11
Launch site
AFETR
Launch vehicle
Mass (kg)
RCS (m²)

Purposes: comms

External: N2YO · Heavens-Above · Gunter

§ Orbital elements

Epoch: 2026-09-20T23:17:43.209600Z

Period
94.27 min
Inclination
42.9985°
Eccentricity
0.0001250
Mean motion
15.27593951 rev/d
Perigee alt
482.1 km
Apogee alt
483.9 km
Semi-major
6,861.1 km
B*
3.6324e-4
RAAN
251.7840°
Arg perigee
256.2521°
Mean anomaly
103.8192°
Rev number
4,924

§ Raw data

STARLINK-347201 66449U 25259AD  26263.97063900  .00009751  00000+0  36324-3 0  99972 66449  42.9985 251.7840 0001250 256.2521 103.8192 15.27593951 49246

JSON: /api/v1/satellites/66449 · /tle

For live sub-satellite position, see the globe view (requires WebGL).

§ Visibility from observer

Set your observer location to see the next 7 days of passes ≥ 10°. The values pass through the URL so the page stays shareable.

No JS? Fill the form by hand. The geolocation button needs JavaScript.